OBJECT BS, 43822

Orbit data source: Space-Track

You're viewing an Uncataloged Satellite

Recently launched and/or uncataloged satellites may have evolving metadata. Metadata may include but not limited to: Owner, Maufacturer, Bus, Motor, and Mission.

OBJECT BS, 43822 is a satellite in SSO that was launched on Mon, 03 Dec 2018 UTC via an FALCON 9 launch vehicle from the Air Force Western Test Range (AFWTR). Unknown objects in Earth's orbit typically refer to objects detected orbiting the Earth but have not yet been identified or cataloged. These objects could be anything from previously untracked satellites, spent rocket stages, debris from satellite collisions, or even natural meteoroids temporarily captured by Earth's gravity.

Loading next visibility...
OBJECT BS details
Identifier
43822, 2018-099BS
Orbit
SSO
Last TLE update12 hours ago
Origin
Flag of TBDKorea AeU (TBD)
ManufacturerKorea AeU
MissionAmateur Technology
Bus & MotorCUBESAT 2U, Unknown motor
Mass2 kg wet, 2 kg dry
Launch date (UTC)
2018-12-03 (6 years ago)
Launch vehicle
FALCON 9
Launch site
Air Force Western Test Range (AFWTR)
Object typeUnknown
Shape & HBRBox, 0.5 m
Radar Cross Section0.025 m², Small (<0.1 m²)

Expand to show TLE details & history

TLE from 12 hours ago
0 OBJECT BS
1 43822U 18099BS  24361.12932299  .00009199  00000-0  61690-3 0  9992
2 43822  97.5137  52.5491 0010416  51.0350 309.1804 15.07025379324963
Epoch: 2024-12-26T03:06Z
Definitive object data (Epoch: 2024-12-26T03:06:13.506Z)
Latitude-0.00004°
Longitude-89.12032°
Altitude543.813 km
Speed7.593 km/s
True Right ascension03h 30m 11s
True Declination0° 00' 00"
Sunlit
Object was in full shadow at TLE epoch
Visualization TLE readout
Latitude-4.76276°
Longitude90.74034°
Altitude554.205 km
Speed7.581 km/s
Apparent Right ascension17h 34m 48s
Apparent Declination-61° 02' 46"
Sunlit
Object is in daylight
Visualization observer readout
Local Sidereal Time14:26:25
Azimuth158.111° S
Elevation-17.981°
Doppler factor1
Orbital elements
Apogee altitude549.492 km
Perigee altitude535.075 km
Semi-major axis6,920.42 km
Eccentricity0.0010416
Inclination97.5137°
RAAN52.5491°
Arg. of periapsis51.035°
True anomaly309.0878°
Mean anomaly309.1804°
Eccentric anomaly309.13411°
Mean motion3.77003 °/min
BSTAR0.0006169
Orbital period95.49 mins
Loading maneuver chart data...
Loading historical data...
Loading historical data...
Loading historical data...
Loading historical data...
Loading historical data...
Loading historical data...
Loading historical data...

OBJECT BS Visibility forecast

Observer location: undefined°, undefined

Span
Click to sort rows by Start time (UTC) header in descending order
Start Az.
Max El. time (UTC)
Max El. Az.
Max El.
End time (UTC)
End Az.
7 mins2024-12-26 16:24:28.443Z16.288° NNE2024-12-26 16:28:28.443Z137.906° SSE43.067°2024-12-26 16:31:28.443Z185.752° SSW
5 mins2024-12-27 03:09:28.443Z123.185° SE2024-12-27 03:11:28.443Z73.364° E28.861°2024-12-27 03:14:28.443Z11.018° NNE
|